Printer-friendly version
Follow the MPC on Twitter Follow the MPC on Facebook The MPC blog
Minor Planet Center

MPEC 2005-W36 : 2005 WC1

The following Minor Planet Electronic Circular may be linked-to from your own Web pages, but must not otherwise be redistributed electronically.

A form allowing access to any MPEC is at the bottom of this page.


Read MPEC 2005-W35 Read MPEC 2005-W37


M.P.E.C. 2005-W36                                Issued 2005 Nov. 22, 12:46 UT

     The Minor Planet Electronic Circulars contain information on unusual
         minor planets and routine data on comets.  They are published
   on behalf of Commission 20 of the International Astronomical Union by the
          Minor Planet Center, Smithsonian Astrophysical Observatory,
                          Cambridge, MA 02138, U.S.A.

                  Supported in part by the Brinson Foundation
                  Supported in part by the TABASGO Foundation
             Prepared using the Tamkin Foundation Computer Network

                              MPC@CFA.HARVARD.EDU
          URL http://cfa-www.harvard.edu/iau/mpc.html  ISSN 1523-6714

                                   2005 WC1

Observations:
     K05W01C* C2005 11 21.31647 05 52 32.55 +63 13 50.9          18.8   EW036704
     K05W01C  C2005 11 21.32913 05 52 33.92 +63 14 04.3          19.1   EW036704
     K05W01C  C2005 11 21.35440 05 52 36.72 +63 14 30.7          19.3   EW036704
     K05W01C  C2005 11 22.23610 05 54 39.00 +63 29 28.7          19.3 R EW036651
     K05W01C  C2005 11 22.23978 05 54 39.35 +63 29 33.2          19.3 R EW036651
     K05W01C  C2005 11 22.24437 05 54 39.99 +63 29 38.1          19.3 R EW036651
     K05W01C  C2005 11 22.30892 05 54 45.98 +63 30 50.7          18.7 R EW036734
     K05W01C  C2005 11 22.31479 05 54 46.74 +63 30 56.9          18.5 R EW036734
     K05W01C  C2005 11 22.31921 05 54 47.21 +63 31 01.2          18.6 R EW036734
     K05W01C 5C2005 11 22.45382 05 55 03.89 +63 33 24.0          18.0 R EW036673
     K05W01C 5C2005 11 22.46308 05 55 04.91 +63 33 33.2                 EW036673
     K05W01C 5C2005 11 22.46852 05 55 05.54 +63 33 38.5                 EW036673
     K05W01C 5C2005 11 22.47245 05 55 05.98 +63 33 42.3                 EW036673

Observer details:
651 Grasslands Observatory, Tucson.  Observer J. E. McGaha.  0.62-m f/5.1
    Newtonian reflector + CCD.
673 Table Mountain Observatory, Wrightwood.  Observer J. Young.  0.6-m f/16
    Cassegrain + CCD.
704 Lincoln Laboratory ETS, New Mexico.  Observers M. Bezpalko, L. Manguso,
    D. Torres, R. Kracke, A. Milner, H. Love.  Measurers J. Stuart, R. Sayer,
    J. Evans, J. Kommers.  1.0-m f/2.15 reflector + CCD.
734 Farpoint Observatory.  Observer G. Hug.  0.7-m reflector + CCD.

Orbital elements:
2005 WC1                                                             PHA 0.031
Epoch 2005 Nov. 6.0 TT = JDT 2453680.5                  MPC
M 306.79968              (2000.0)            P               Q
n   0.59785383     Peri.  254.73165     -0.89192527     -0.30996672
a   1.3955306      Node   266.32217     +0.42130618     -0.83408641
e   0.4747118      Incl.   19.26305     -0.16422674     -0.45631184
P   1.65           H   20.4           G   0.15
From 13 observations 2005 Nov. 21-22.

Ephemeris:
2005 WC1                 a,e,i = 1.40, 0.47, 19                  q = 0.7331
Date    TT    R. A. (2000) Decl.     Delta      r     Elong.  Phase     V
2005 11 16    05 41.98   +61 47.7    0.298    1.205   130.7    38.5    19.7
2005 11 17    05 43.82   +62 03.3    0.288    1.197   131.0    38.6    19.6
2005 11 18    05 45.72   +62 19.1    0.277    1.189   131.2    38.7    19.5
2005 11 19    05 47.68   +62 35.2    0.267    1.182   131.4    38.9    19.4
2005 11 20    05 49.71   +62 51.6    0.256    1.174   131.6    39.0    19.3
2005 11 21    05 51.83   +63 08.2    0.246    1.166   131.7    39.2    19.2
2005 11 22    05 54.04   +63 25.2    0.236    1.158   131.9    39.4    19.1
2005 11 23    05 56.38   +63 42.7    0.226    1.151   132.0    39.6    19.0
2005 11 24    05 58.86   +64 00.6    0.215    1.143   132.1    39.9    18.9
2005 11 25    06 01.51   +64 19.1    0.205    1.135   132.1    40.2    18.8
2005 11 26    06 04.37   +64 38.3    0.195    1.127   132.2    40.5    18.7
2005 11 27    06 07.48   +64 58.2    0.185    1.119   132.1    40.8    18.6
2005 11 28    06 10.90   +65 19.0    0.175    1.112   132.1    41.2    18.5
2005 11 29    06 14.69   +65 40.9    0.165    1.104   132.0    41.6    18.3
2005 11 30    06 18.94   +66 04.0    0.155    1.096   131.9    42.1    18.2
2005 12 01    06 23.78   +66 28.6    0.145    1.088   131.7    42.6    18.0
2005 12 02    06 29.37   +66 54.9    0.135    1.080   131.4    43.2    17.9
2005 12 03    06 35.93   +67 23.1    0.126    1.072   131.0    43.9    17.7
2005 12 04    06 43.75   +67 53.7    0.116    1.065   130.5    44.7    17.6
2005 12 05    06 53.27   +68 26.7    0.106    1.057   129.9    45.6    17.4
2005 12 06    07 05.13   +69 02.4    0.0963   1.049   129.2    46.7    17.2
2005 12 07    07 20.27   +69 40.4    0.0866   1.041   128.2    48.1    17.0
2005 12 08    07 40.17   +70 19.5    0.0771   1.033   126.9    49.7    16.8
2005 12 09    08 07.05   +70 55.7    0.0676   1.025   125.1    51.8    16.5
2005 12 10    08 44.21   +71 18.9    0.0583   1.018   122.8    54.5    16.3
2005 12 11    09 35.54   +71 04.4    0.0492   1.010   119.4    58.1    16.0
2005 12 12    10 42.56   +69 16.7    0.0405   1.002   114.5    63.4    15.7
2005 12 13    11 58.32   +64 09.8    0.0325   0.994   106.8    71.5    15.4
2005 12 14    13 08.38   +53 02.6    0.0257   0.987    94.3    84.2    15.4
2005 12 15    14 03.39   +33 26.9    0.0214   0.979    75.0   103.8    15.8
2005 12 16    14 43.48   +08 24.4    0.0213   0.971    52.4   126.6    17.4

Timothy B. Spahr             (C) Copyright 2005 MPC           M.P.E.C. 2005-W36

Read MPEC 2005-W35 Read MPEC 2005-W37


MPEC number:

Enter an MPEC number in one of the following forms:

  • 1997-B01 (the full form)
  • J97B01 (the packed version of the full form)
  • B01 (the abbreviated form)

Valid HTML 4.01!